GEFSSGP_500_meanwind_024.txt.gz
Wind_Speed
4 4 5 5 5 5 5 5 5 5 5 5 5 5 4 4 3 4 4 5 6 7 9 11 10 10 10 11 12 14 15 16 16 14 13 11 9 7 5 3 3 2 2 2 2 2 4 5 8
4 4 5 5 4 4 4 4 4 4 5 5 5 5 5 4 3 3 5 5 5 6 7 9 9 9 9 9 10 12 14 15 16 15 13 12 10 8 5 3 2 2 1 1 2 2 4 6 8
4 5 6 5 4 4 3 4 4 4 4 4 5 5 5 5 4 2 4 6 6 5 6 7 8 8 7 8 8 10 11 13 14 14 14 13 12 11 8 4 2 2 1 2 2 3 4 6 8
4 5 5 5 5 4 4 3 3 4 4 3 4 4 5 5 4 3 3 5 6 5 5 5 6 6 6 6 6 7 8 10 11 13 13 13 13 12 10 7 4 2 1 1 2 3 3 4 8
4 4 4 4 5 4 4 3 3 3 4 4 4 5 5 5 5 4 3 3 5 6 5 4 4 5 5 5 5 5 6 7 8 11 12 12 12 12 12 10 7 3 1 1 2 3 3 2 6
4 4 4 4 5 4 4 4 4 4 4 5 5 5 5 6 5 5 4 3 4 6 5 4 3 3 3 4 4 4 4 5 6 8 9 10 10 11 11 11 9 6 4 2 2 2 2 1 5
4 4 5 5 4 4 3 3 3 4 5 5 6 6 6 5 6 6 5 4 3 5 6 6 4 3 1 1 2 3 4 5 5 6 6 7 8 9 10 10 10 8 6 5 3 2 2 1 3
5 5 4 4 3 2 1 1 2 3 4 4 5 5 5 5 6 6 5 4 3 3 5 6 7 5 4 3 2 1 3 4 5 6 5 5 6 6 8 9 9 9 8 7 6 4 2 1 2
8 7 6 5 4 3 2 2 2 3 3 3 3 3 4 4 4 5 5 4 2 1 3 6 8 8 7 6 6 5 4 4 5 6 6 5 5 5 5 6 7 8 7 8 7 5 2 0 2
11 10 9 8 7 6 5 5 5 5 5 5 4 4 4 3 3 2 3 3 2 0 2 5 7 9 10 10 10 9 7 6 6 7 7 6 5 4 4 4 5 6 6 6 6 5 3 0 2
14 13 12 11 11 10 10 9 8 8 8 8 8 7 7 7 6 4 3 2 2 2 3 4 6 8 10 11 12 11 10 9 8 9 9 8 7 6 4 4 4 4 4 4 5 4 2 0 2
16 16 15 14 14 14 14 13 12 11 12 12 12 11 11 11 10 9 7 6 5 5 5 6 7 8 9 10 11 12 12 12 11 11 11 10 10 9 7 6 5 4 3 3 3 3 2 1 3
18 17 17 17 17 17 17 17 16 15 15 15 15 15 15 15 14 13 12 10 10 9 9 9 10 10 11 11 11 12 13 14 14 14 13 13 12 11 10 10 8 7 6 5 4 3 2 2 3
19 20 20 21 21 21 21 21 21 20 19 19 19 19 19 19 18 17 16 15 14 13 13 12 12 13 13 14 13 13 14 15 15 16 16 15 15 14 13 12 12 11 9 8 7 6 5 5 5
22 23 24 24 25 25 25 26 26 25 24 23 23 22 22 22 22 22 21 19 19 18 16 16 15 15 16 16 16 16 16 16 16 17 18 18 17 16 15 15 14 14 13 11 10 10 9 8 8
26 26 28 28 29 29 30 32 31 30 29 28 27 26 26 26 26 26 25 24 23 22 21 20 19 19 18 18 18 19 18 17 18 18 19 20 19 18 18 17 17 17 16 15 15 14 13 12 12
29 30 32 33 33 33 34 36 36 34 33 32 31 31 30 29 29 29 29 28 27 27 25 24 23 22 22 21 20 21 21 19 19 20 21 22 21 20 20 19 20 19 19 19 18 17 16 16 16
33 34 35 37 38 37 38 40 40 39 38 37 36 35 34 34 33 33 32 31 31 30 28 28 27 26 25 24 23 23 23 22 22 22 23 23 23 23 22 21 22 22 22 21 20 19 19 19 20
36 37 38 40 41 41 42 43 43 43 42 41 40 39 38 37 37 36 36 36 35 33 32 31 30 30 29 28 28 27 25 25 25 25 26 26 26 25 24 24 23 23 23 22 22 22 22 22 23
37 38 40 42 42 42 43 44 44 43 43 42 41 40 39 39 39 38 38 39 38 38 37 35 34 34 33 32 32 31 29 28 28 29 29 29 29 28 26 25 24 23 23 23 23 24 24 25 26
39 40 41 42 42 42 42 43 42 41 41 40 39 37 37 36 37 37 38 39 40 40 40 40 38 37 36 36 36 35 33 33 32 32 33 32 31 30 28 27 26 25 25 25 25 25 26 27 28
42 43 43 43 43 41 41 40 41 38 37 36 35 34 33 32 33 35 36 38 39 41 42 42 41 40 40 40 40 39 38 38 37 36 35 34 33 31 30 28 27 25 25 25 25 26 26 27 27
44 45 45 45 44 43 41 40 40 37 35 35 34 33 33 33 33 33 35 37 39 41 42 44 44 44 42 42 42 42 42 42 40 38 36 34 33 32 31 30 27 25 25 26 26 26 26 27 28
41 42 43 43 42 43 40 38 39 38 36 35 35 35 35 34 34 34 35 37 38 40 42 44 44 45 44 44 44 44 44 44 43 41 38 35 34 33 32 29 27 25 25 26 26 26 26 27 27
35 35 35 34 34 35 36 36 39 38 36 35 35 35 35 35 35 36 37 37 38 39 41 42 43 44 44 44 45 46 45 46 47 44 40 36 34 32 30 27 25 24 24 25 26 27 27 27 27
26 24 23 23 22 24 26 29 31 31 32 33 33 33 33 33 34 35 35 35 35 36 37 39 41 42 42 42 43 45 47 47 46 44 41 36 33 30 26 24 22 23 24 25 27 27 27 27 27
20 16 13 12 14 17 18 21 23 23 24 25 25 26 26 27 27 28 29 30 30 30 32 35 37 38 39 40 42 42 42 43 45 43 37 34 30 25 22 21 21 23 24 26 27 27 27 27 26
20 15 10 5 2 5 9 12 12 13 14 15 15 15 16 17 18 19 20 22 22 23 25 28 31 33 34 35 37 38 40 39 37 34 29 26 22 18 17 18 21 22 23 24 25 25 24 24 24
21 16 13 9 5 3 2 2 3 4 5 7 7 8 8 8 10 10 11 13 15 17 19 21 23 25 27 28 29 30 30 27 24 20 17 15 14 15 17 19 20 21 21 22 22 22 21 21 21
22 20 17 13 9 7 5 4 3 2 3 3 4 5 5 4 4 4 4 5 7 9 10 9 11 12 12 13 14 13 12 12 11 10 9 10 10 13 16 18 20 20 20 20 19 19 19 19 20

GEFSSGP_500_meanwind_030.txt.gz
Wind_Speed
6 5 5 5 3 4 5 6 5 6 6 5 4 4 3 3 1 1 0 2 4 6 7 8 8 9 11 12 14 15 16 16 17 17 16 15 12 10 7 5 4 3 2 1 1 1 1 2 3
5 4 5 5 4 6 5 5 5 5 5 5 4 4 4 3 2 2 1 2 3 4 6 6 7 8 9 10 11 13 14 15 16 16 16 15 14 12 9 7 5 4 3 2 1 1 1 2 3
4 4 5 5 6 6 5 4 4 5 5 5 5 4 4 3 2 1 2 3 3 3 4 5 6 6 7 8 9 10 12 13 14 14 15 15 15 13 12 10 7 5 4 3 2 2 2 3 4
4 4 5 6 6 5 4 4 4 4 4 5 5 5 4 4 3 1 2 3 4 3 3 4 4 5 5 6 6 7 9 10 11 12 12 13 13 13 12 11 10 8 6 4 3 3 2 3 4
4 3 5 6 5 4 4 3 3 2 3 4 4 4 4 4 3 2 2 3 5 5 4 3 3 4 4 5 5 5 6 7 8 9 10 11 11 12 12 12 11 10 8 7 5 4 3 3 3
4 4 4 3 2 3 3 2 1 1 2 3 4 3 3 3 3 2 2 3 5 6 5 4 3 2 3 3 3 4 4 5 6 6 7 8 9 10 11 12 12 11 10 8 6 4 3 3 1
5 4 4 2 3 2 1 0 1 1 1 2 3 3 2 3 2 2 1 3 5 6 7 6 5 3 2 1 1 1 2 3 3 4 4 5 6 7 8 10 11 11 10 9 7 5 3 2 1
7 6 6 5 5 4 3 3 3 3 3 3 4 3 2 2 2 2 2 2 4 6 7 7 7 6 5 4 3 2 1 1 2 2 3 3 4 5 6 7 8 9 9 9 7 5 3 2 1
9 8 7 7 9 8 7 7 7 7 7 7 6 5 4 4 3 3 3 3 3 4 6 7 8 8 8 8 7 6 6 5 4 4 3 3 3 4 5 6 6 7 7 8 7 6 4 3 2
12 11 10 12 14 12 11 11 10 10 11 10 10 8 7 7 6 6 6 5 5 5 5 6 8 9 10 11 11 10 10 9 8 8 7 6 5 5 6 6 6 6 6 6 6 6 5 4 2
15 15 14 16 17 16 16 16 15 15 14 13 13 12 11 10 10 9 9 8 8 7 7 7 8 9 10 11 12 12 12 12 11 11 10 9 8 8 8 7 7 6 6 6 5 5 5 4 4
17 18 19 19 19 19 20 20 20 18 17 17 17 16 15 14 13 13 12 11 11 11 11 10 10 10 11 12 13 13 14 14 14 14 13 12 12 11 11 10 9 9 8 7 7 6 6 5 4
19 21 21 21 21 22 23 24 24 22 21 20 20 20 20 19 17 16 16 15 14 13 13 13 13 12 13 14 14 15 16 16 16 16 16 16 16 15 14 13 12 11 11 10 9 8 8 7 6
20 21 22 23 25 26 27 27 27 26 25 24 24 24 24 23 21 20 19 19 18 16 16 16 16 16 16 16 16 17 18 18 18 19 19 19 19 18 17 16 15 14 14 13 12 11 10 9 9
22 23 25 26 27 29 30 31 31 31 29 28 28 28 27 26 25 24 23 22 21 20 20 19 19 19 19 18 19 19 20 20 20 21 21 21 21 21 20 19 18 17 16 16 15 14 13 12 12
25 26 27 28 30 32 33 35 36 34 33 32 32 31 30 30 29 28 27 25 25 24 24 22 22 22 22 22 22 21 21 21 22 22 23 23 23 23 22 21 20 20 19 18 17 17 16 16 15
26 28 28 29 31 33 34 35 37 37 37 36 35 35 35 34 34 32 30 29 29 28 28 27 25 25 25 24 25 24 24 23 23 23 23 24 25 25 24 23 23 22 21 21 21 20 20 19 19
27 29 31 31 33 34 35 36 38 40 40 40 39 39 39 39 38 36 34 34 33 33 32 32 30 29 29 28 28 27 27 26 25 24 24 25 26 26 25 25 25 25 24 24 23 23 23 22 22
29 31 33 34 36 38 40 40 41 42 43 43 43 42 42 42 42 40 38 38 37 37 36 36 35 33 32 32 31 31 31 30 28 26 25 26 26 26 26 27 27 26 27 26 26 26 25 24 24
31 33 35 37 40 42 43 44 46 45 44 45 44 44 44 43 42 41 40 39 39 38 38 37 37 36 35 35 35 35 35 33 32 30 28 28 28 28 27 29 29 29 29 29 27 26 25 24 23
29 33 36 38 40 42 44 44 43 42 42 45 44 44 43 41 40 39 38 37 36 37 36 36 36 36 36 36 36 37 37 36 34 33 31 30 30 30 30 31 32 32 31 31 30 28 26 24 24
28 31 34 36 38 40 39 39 34 34 38 39 39 40 40 38 37 35 34 33 33 33 33 34 34 35 36 37 38 38 39 38 36 36 35 34 33 33 33 32 32 33 32 32 32 30 28 27 26
29 31 33 34 35 34 32 32 31 32 37 38 36 34 33 33 33 32 31 30 30 30 31 32 33 34 36 37 37 38 38 39 38 38 38 37 36 36 36 35 34 34 33 32 32 31 29 27 26
30 30 31 30 28 24 22 23 29 33 37 38 35 32 30 30 30 31 31 31 31 31 31 32 33 34 36 37 38 38 39 40 40 41 40 39 38 37 37 36 36 35 34 32 31 31 30 29 27
28 28 28 24 18 17 17 20 28 32 35 38 39 39 35 33 33 32 32 32 33 33 33 34 35 36 37 38 39 39 39 40 41 42 42 40 40 39 37 37 36 36 35 33 33 32 31 29 27
25 26 24 21 14 11 14 18 22 27 31 34 36 38 36 35 34 33 33 33 34 34 34 35 36 37 38 38 38 38 38 39 40 40 41 40 40 40 39 39 38 36 35 34 34 33 30 29 28
24 22 20 17 13 8 11 14 16 17 21 26 29 30 31 31 30 31 31 32 32 33 33 34 35 36 36 36 35 36 36 37 38 38 39 39 39 39 39 37 35 34 35 35 34 31 28 28 27
24 21 17 15 13 9 8 11 14 16 16 17 18 20 22 23 23 25 26 27 28 29 30 31 32 32 31 31 31 31 32 33 35 35 34 36 36 36 36 36 34 34 34 34 30 25 24 25 25
22 20 17 15 14 11 10 11 13 13 13 12 11 13 15 15 16 17 18 19 21 22 23 23 23 24 24 24 25 26 26 27 29 29 30 30 31 32 33 33 31 29 27 24 22 21 21 22 22
21 20 18 16 14 13 12 12 12 12 11 9 5 4 6 7 9 9 8 9 11 12 12 14 14 14 15 15 16 17 18 20 21 23 23 24 24 23 23 21 20 19 18 17 17 18 20 21 21

GEFSSGP_500_meanwind_036.txt.gz
Wind_Speed
3 3 3 3 2 1 2 3 6 8 9 9 8 7 8 7 4 3 4 6 6 7 8 8 9 10 11 11 12 12 13 14 15 15 15 14 14 12 10 8 7 6 4 3 3 3 4 4 6
2 2 1 1 1 1 2 3 5 7 7 7 7 6 7 7 4 3 4 5 5 6 6 7 8 8 9 9 10 10 11 11 13 14 14 14 14 13 12 10 7 6 4 3 2 3 3 4 5
3 2 2 3 4 3 2 2 4 6 6 6 6 6 6 6 4 2 3 4 4 5 5 6 7 7 7 7 7 7 8 9 10 11 12 13 14 14 13 11 9 7 5 3 1 1 2 3 4
3 3 3 3 3 2 1 2 3 5 5 5 5 5 4 4 3 2 1 2 3 4 4 5 5 6 6 5 4 4 5 6 7 8 9 11 12 14 13 12 10 8 6 4 2 0 2 2 3
1 2 4 3 2 1 1 1 3 4 4 4 4 4 4 4 2 1 0 1 3 3 4 4 4 5 5 4 3 2 2 3 4 5 7 8 10 11 12 12 11 9 7 5 3 1 1 2 2
2 3 4 2 1 1 1 2 2 3 3 3 3 3 3 3 3 1 0 1 3 4 4 4 3 4 4 4 3 1 0 1 3 4 4 5 7 8 10 10 10 10 9 8 6 3 2 2 1
6 4 3 4 3 2 2 2 3 2 2 2 3 3 3 3 3 2 2 1 2 4 5 5 5 4 4 4 3 2 2 2 3 4 4 5 5 6 7 8 9 9 10 10 9 7 5 3 2
9 8 7 7 6 5 5 5 5 5 4 4 4 4 4 3 2 2 3 2 2 4 6 6 6 6 5 5 4 4 4 4 5 5 6 6 6 6 6 6 7 8 9 10 10 9 7 5 4
11 10 9 8 8 8 8 8 9 9 8 7 6 6 6 6 4 2 3 4 3 4 6 7 8 8 7 7 6 6 6 6 7 7 8 9 9 8 8 7 7 7 8 9 9 9 8 6 5
14 13 12 12 11 10 10 11 12 12 12 11 10 10 10 9 8 6 5 6 6 6 7 8 8 9 9 8 8 8 7 7 8 9 10 11 11 11 10 10 9 8 8 8 8 8 8 7 5
15 15 14 14 14 13 13 14 15 16 16 15 14 13 13 13 13 11 9 9 9 9 9 10 10 9 9 9 9 9 9 9 8 9 11 12 13 13 12 12 11 10 10 9 8 7 7 7 5
15 16 16 16 16 16 18 18 18 20 21 21 20 19 17 16 17 16 14 13 12 12 12 12 12 11 11 10 10 10 10 10 10 10 11 13 14 15 14 14 14 13 12 11 10 9 8 7 6
16 17 18 19 20 22 22 22 21 22 24 25 25 24 22 21 20 20 19 18 17 15 15 14 14 14 13 13 12 12 12 12 12 12 12 13 15 16 16 16 16 15 15 14 13 11 10 9 9
18 20 21 22 24 26 25 25 25 26 26 27 27 28 27 26 25 24 23 21 20 20 18 17 16 16 16 16 15 15 15 15 15 15 15 15 15 16 17 17 17 17 17 16 16 14 13 12 11
21 22 23 25 27 27 27 27 27 28 28 29 30 30 30 29 28 28 26 25 24 23 22 21 20 19 19 19 18 18 18 17 18 17 17 17 16 17 17 18 18 19 19 18 18 17 16 15 13
23 24 25 27 29 29 29 28 28 29 30 31 32 33 33 33 32 31 30 29 28 26 25 24 24 23 22 22 21 20 20 20 20 20 19 19 18 18 19 19 19 20 20 20 19 20 19 18 17
25 26 27 28 29 29 30 30 31 32 32 33 34 36 36 35 35 34 33 32 31 30 29 28 27 26 25 24 23 23 23 23 23 23 22 22 21 20 20 20 20 21 21 21 21 21 22 21 20
24 25 27 28 28 29 30 32 33 36 37 38 38 38 37 37 36 36 36 35 35 34 33 32 31 30 29 28 27 26 26 27 27 27 26 25 24 23 22 22 21 21 21 21 21 21 22 23 23
22 23 24 26 27 29 31 33 35 38 42 42 43 42 41 40 39 39 39 38 38 38 38 38 36 35 33 32 31 30 30 30 31 30 30 29 28 26 25 24 23 23 22 21 22 23 23 24 25
21 22 23 24 27 28 31 33 36 38 41 43 45 46 46 44 42 41 40 40 40 41 41 41 40 39 38 36 34 34 34 33 33 33 33 33 32 29 27 26 25 24 24 23 22 23 24 25 26
21 22 23 24 26 29 32 34 37 39 41 43 44 46 47 47 44 43 42 42 42 42 43 43 43 42 41 40 38 36 35 35 34 35 35 35 32 30 28 27 25 24 24 24 23 22 23 24 26
21 23 24 24 25 28 30 33 35 37 39 41 42 44 44 44 44 43 41 42 43 42 42 42 42 42 41 40 38 37 35 35 35 35 34 34 33 31 30 29 28 26 25 25 24 23 24 25 26
21 22 22 23 25 27 29 31 31 31 34 39 41 42 42 42 42 41 39 38 39 40 41 41 41 41 40 39 38 36 35 34 34 34 34 34 32 32 32 30 29 27 26 26 26 25 25 25 26
21 22 22 22 23 23 24 25 26 26 28 30 32 34 35 35 35 35 35 34 35 36 38 38 39 39 39 39 37 36 35 34 34 34 34 35 34 33 32 31 31 29 28 28 25 25 26 26 27
20 21 20 20 20 20 21 20 21 22 22 23 25 26 28 28 28 29 30 32 32 33 34 36 36 37 37 36 36 36 35 35 35 36 35 35 35 35 34 33 32 32 31 30 29 27 26 28 28
18 18 17 16 16 16 16 16 17 19 20 20 20 20 22 23 25 26 26 27 29 30 32 33 34 35 35 36 36 36 36 36 36 36 36 37 37 37 35 34 34 34 31 29 29 29 29 29 29
17 17 16 15 14 14 14 13 13 16 16 16 15 15 15 16 17 18 19 21 23 25 28 31 32 33 33 34 35 36 36 36 36 36 36 36 37 37 36 35 34 32 29 28 29 30 30 30 30
17 17 16 15 14 13 13 12 12 12 14 14 13 13 12 11 11 11 12 13 16 20 23 26 28 30 31 32 32 33 33 33 34 34 34 34 34 35 35 34 33 31 30 30 30 30 29 30 30
17 18 16 14 14 14 13 13 14 15 15 14 12 11 10 8 8 6 7 8 9 12 15 17 20 22 24 25 26 27 28 28 28 29 28 28 28 28 29 28 27 27 26 27 27 29 30 30 30
18 18 17 15 15 15 14 15 15 15 15 15 14 12 11 10 8 6 5 4 2 3 5 7 9 11 13 15 16 17 18 19 19 20 21 21 21 22 22 22 22 23 23 24 24 25 25 24 24

GEFSSGP_500_meanwind_042.txt.gz
Wind_Speed
7 7 8 9 9 10 9 9 9 10 9 8 8 9 8 7 5 3 4 5 6 6 6 7 8 9 10 11 12 14 15 16 16 16 16 15 14 12 10 9 7 5 4 2 1 1 1 2 3
6 6 6 7 8 8 7 7 8 9 8 8 8 8 8 7 5 4 3 4 4 5 4 4 5 6 7 9 10 12 13 14 14 15 15 15 14 13 12 11 9 8 6 4 2 2 0 1 3
5 6 6 8 8 7 6 6 6 7 7 7 7 7 7 7 6 4 3 2 3 3 3 3 3 4 5 6 7 9 10 11 12 13 13 14 14 13 13 12 11 10 9 7 4 3 1 1 2
4 4 6 8 7 6 5 5 5 6 6 6 7 7 7 7 6 4 2 1 1 2 3 3 2 2 2 3 5 6 8 9 10 11 11 12 12 13 13 13 12 12 10 9 6 4 2 1 2
3 4 5 6 6 5 3 3 4 5 6 6 7 7 7 7 6 4 2 1 1 1 2 2 2 2 2 1 2 4 5 7 7 8 9 9 10 11 11 12 12 12 12 10 8 6 4 2 1
5 4 4 4 5 4 3 3 3 4 5 6 6 7 6 6 6 4 3 2 2 2 3 3 3 3 3 2 0 1 2 4 5 6 7 7 8 9 9 10 11 12 12 11 9 7 5 3 1
7 6 5 4 5 5 4 3 1 2 3 4 5 6 5 5 5 5 4 3 3 4 4 4 4 4 4 3 2 1 1 2 3 4 5 6 6 7 8 8 9 10 10 11 10 8 7 5 3
8 8 8 8 7 7 6 5 4 3 3 4 5 6 6 5 5 5 5 4 4 5 6 6 6 6 6 6 5 4 4 4 4 5 5 5 5 6 7 7 7 8 8 9 9 9 8 6 4
9 9 9 10 10 10 10 9 7 7 7 7 7 8 8 8 7 7 7 6 6 6 7 7 7 8 8 8 8 8 7 7 6 6 6 6 6 6 6 7 7 7 6 7 7 7 7 6 5
10 10 11 12 13 14 13 12 11 12 11 11 10 11 11 11 11 11 10 10 9 8 8 8 8 9 10 10 11 11 10 10 9 8 8 8 7 7 7 7 7 7 6 6 5 5 5 5 5
12 12 13 15 17 18 17 17 17 17 16 16 15 15 15 15 15 15 15 14 14 13 12 11 11 11 11 12 12 13 13 12 11 11 10 10 9 9 9 9 9 8 7 6 5 5 5 4 4
14 14 15 17 19 21 21 21 22 22 22 22 21 20 19 18 18 19 19 19 18 17 17 15 14 13 13 14 14 14 14 14 13 13 12 12 11 12 12 12 11 10 10 9 7 6 6 5 4
17 18 19 20 22 24 25 25 26 27 27 27 26 24 23 21 21 21 21 22 22 21 20 19 19 18 17 16 16 16 16 16 15 15 15 14 14 14 14 14 13 12 12 11 10 9 8 8 7
20 21 22 23 25 26 27 28 29 29 29 29 28 27 26 25 24 23 23 24 24 24 23 22 22 22 21 20 19 19 19 19 18 17 17 16 16 16 16 16 15 14 14 13 12 11 11 11 10
23 24 25 26 28 29 30 31 32 32 32 31 30 30 29 29 28 28 27 27 27 27 27 26 26 25 24 24 23 23 22 22 21 20 20 19 19 18 18 18 17 16 16 15 14 14 13 13 13
26 27 28 29 30 32 33 33 33 34 34 33 33 32 32 33 33 33 32 32 32 32 31 31 30 29 28 27 26 26 26 26 24 23 23 22 21 21 21 20 19 18 18 17 17 16 16 16 16
27 29 30 31 32 33 34 35 35 35 34 35 35 35 36 36 36 36 37 36 36 36 36 35 34 33 32 30 28 28 28 29 28 26 26 25 24 24 24 23 22 21 20 20 19 18 18 18 18
28 29 30 30 30 31 32 33 33 34 34 35 36 37 39 40 41 41 40 41 41 40 39 39 38 37 37 35 33 32 31 30 29 28 28 28 27 27 27 26 25 23 23 22 22 21 20 20 20
26 27 28 28 28 29 30 31 32 33 34 35 36 37 39 41 42 44 46 46 45 44 43 44 43 42 40 39 37 36 34 32 30 30 30 29 29 28 29 29 28 26 25 25 25 24 23 22 22
24 25 26 27 27 28 29 30 31 33 34 35 37 39 41 43 45 46 48 49 49 49 49 47 46 45 44 42 41 39 38 36 34 32 31 31 32 31 30 30 29 28 27 27 27 27 26 25 24
23 24 26 27 28 29 30 31 32 33 34 36 37 39 41 42 44 46 48 48 48 48 50 49 47 46 46 45 43 42 40 38 37 36 35 34 34 34 32 29 28 29 29 29 30 29 28 27 27
23 23 24 26 28 29 29 31 31 32 34 35 36 38 39 40 41 43 43 45 46 46 47 48 47 46 44 45 44 42 41 40 38 38 37 36 36 36 34 32 31 31 31 31 31 31 30 29 28
21 21 23 24 25 26 27 28 28 29 30 31 33 34 36 37 38 38 37 38 39 41 42 43 43 44 43 43 43 41 39 39 39 39 39 38 38 36 35 34 33 33 31 30 30 31 32 31 30
20 21 22 22 23 23 24 25 25 25 25 27 28 29 30 31 31 31 31 31 32 33 35 36 37 37 37 39 40 39 39 38 37 37 37 37 37 37 35 35 34 33 32 31 31 31 32 32 32
19 20 21 21 20 20 20 21 21 22 23 23 23 23 24 24 23 23 23 24 23 24 25 27 29 30 31 33 35 36 37 36 36 35 35 35 35 34 34 33 33 33 33 32 32 31 31 32 32
19 19 20 19 18 18 17 17 18 19 20 20 20 20 21 20 19 16 15 16 16 16 18 20 23 24 25 27 29 31 31 32 32 31 32 32 32 32 32 32 32 32 33 34 34 34 33 33 33
17 17 17 16 16 15 15 16 16 18 19 19 18 18 17 17 16 13 11 11 11 11 12 13 15 18 20 22 24 26 27 27 28 28 29 29 30 31 32 32 33 34 35 35 35 35 34 33 32
17 17 16 15 15 14 14 15 16 16 17 17 18 17 16 16 15 13 10 10 8 8 7 7 9 12 14 16 18 20 22 23 24 25 26 27 28 30 31 32 33 34 34 34 34 35 34 34 35
17 16 15 14 14 14 15 15 16 16 17 18 18 17 17 17 15 13 11 10 8 6 5 5 5 6 9 11 13 15 16 18 19 21 23 25 26 27 29 30 31 31 31 31 32 32 32 33 33
17 16 16 15 15 15 15 16 17 18 18 19 19 19 18 18 18 16 14 13 12 10 8 7 6 4 3 3 5 6 8 11 13 15 16 18 20 22 24 26 26 27 28 29 29 29 30 29 28

GEFSSGP_500_meanwind_048.txt.gz
Wind_Speed
9 9 10 10 10 10 9 8 9 9 8 8 7 6 6 5 5 5 6 6 7 7 7 8 8 8 9 9 10 11 11 11 12 12 12 11 11 10 9 8 6 5 4 4 3 3 3 4 4
9 9 9 8 9 9 7 7 7 8 7 7 6 6 5 5 5 5 6 6 6 6 6 6 6 6 7 7 8 9 9 10 10 11 11 12 11 11 10 9 8 6 5 4 3 3 3 3 3
7 7 8 8 9 7 6 6 6 6 6 6 5 5 5 5 5 5 5 5 6 6 6 6 5 5 5 6 6 6 7 8 8 9 10 10 11 11 11 10 9 7 6 5 4 3 2 2 2
6 6 6 7 7 6 4 4 4 4 4 5 5 4 4 4 4 4 4 5 5 6 7 6 6 5 5 5 5 4 5 6 6 7 8 9 9 10 10 10 9 8 7 6 4 3 2 2 2
4 4 5 5 4 4 3 2 2 2 3 3 3 3 3 3 3 3 3 4 5 6 7 7 7 7 6 6 5 4 4 4 4 5 6 6 7 8 8 8 8 8 7 6 5 4 3 2 2
2 2 2 3 2 1 0 0 1 1 1 1 2 2 2 1 1 1 2 4 5 7 7 8 8 9 9 8 7 6 5 4 4 3 3 4 5 5 6 6 7 7 7 6 5 5 4 3 2
2 1 1 2 2 2 3 3 4 4 3 2 2 3 3 2 2 2 2 4 6 8 9 9 10 10 10 10 10 9 8 7 5 4 3 2 2 3 3 4 4 5 5 5 5 5 4 3 2
5 5 4 5 5 5 5 6 6 6 6 5 5 5 5 5 5 5 5 5 7 8 10 11 12 12 13 13 13 12 11 10 9 7 6 5 4 3 2 2 2 2 3 3 4 4 4 4 3
8 8 8 8 8 7 7 8 9 9 9 9 8 8 8 8 9 8 8 8 9 9 10 12 13 14 15 16 16 15 14 13 12 11 10 8 7 5 4 3 3 2 1 1 1 2 3 3 3
10 11 11 11 11 11 11 11 12 12 12 12 12 12 12 12 12 12 12 12 12 12 12 13 15 16 16 17 18 18 18 17 16 15 13 12 10 8 7 6 5 4 3 2 2 1 1 2 2
12 13 14 14 14 14 15 15 16 16 16 16 17 17 17 17 17 16 16 17 17 16 16 17 17 18 19 20 20 20 20 20 19 18 17 15 14 12 10 9 7 7 6 5 4 4 3 2 1
14 14 16 17 17 18 18 19 20 20 21 21 21 22 22 21 20 20 20 20 21 21 20 21 21 22 23 23 24 24 23 23 22 21 20 19 17 15 13 12 10 9 9 8 7 7 6 5 4
16 16 18 19 20 21 22 23 24 24 25 25 25 25 25 24 25 24 24 24 24 24 24 24 25 26 26 27 27 27 27 26 25 24 23 22 21 19 17 15 14 12 11 11 10 10 9 9 7
19 20 21 22 24 25 26 27 28 28 29 29 29 29 29 29 29 29 29 29 29 28 28 28 29 30 30 31 31 30 29 29 28 28 27 26 24 23 21 19 17 15 14 13 13 12 12 12 11
23 24 25 26 27 28 29 30 30 31 31 32 32 32 32 33 33 33 34 34 34 33 33 32 33 33 33 33 33 33 34 33 31 31 30 29 28 27 25 22 19 17 16 15 14 14 14 14 14
25 27 28 29 29 30 31 31 30 31 32 32 33 33 34 35 36 37 38 38 38 38 38 37 38 37 36 35 36 36 36 37 35 34 33 31 30 28 27 25 22 20 19 18 17 16 16 16 16
26 28 29 30 29 30 31 31 31 31 32 33 33 34 35 36 37 38 39 41 41 42 43 43 43 42 41 40 39 38 38 37 37 37 35 33 32 30 28 27 25 23 22 21 20 19 18 17 17
27 28 29 29 29 29 30 31 30 31 32 32 33 34 35 36 38 39 40 42 43 44 45 46 47 47 47 45 44 42 40 39 39 39 39 38 35 33 31 30 28 26 24 23 22 21 21 20 19
26 28 29 28 28 29 29 30 30 31 32 33 33 34 36 37 39 40 41 42 43 44 46 47 49 50 49 49 48 47 44 43 42 41 38 38 37 35 34 31 29 27 25 24 23 22 22 22 21
26 27 27 27 27 28 29 29 30 30 31 32 33 34 35 37 38 39 40 41 43 44 45 47 48 49 50 51 51 50 49 47 46 44 42 39 36 35 34 33 32 30 27 26 25 24 24 24 24
24 24 25 26 26 26 27 28 28 28 29 29 30 31 32 33 34 36 38 39 41 42 43 44 46 47 48 49 50 50 50 51 50 47 44 42 38 36 34 33 33 31 28 26 26 26 24 24 24
22 22 23 24 24 25 25 27 26 26 27 27 28 28 29 29 30 31 32 33 35 37 38 40 42 44 45 47 47 49 49 49 49 47 47 45 42 39 36 33 31 29 28 27 27 26 25 25 26
21 21 21 21 22 23 22 23 23 23 24 25 26 26 26 27 27 26 27 27 27 29 30 32 34 36 39 40 42 44 45 46 47 46 45 44 43 40 37 34 32 30 29 28 28 27 27 26 26
19 19 19 19 19 19 19 19 20 20 21 22 23 23 23 23 22 22 23 23 23 23 23 24 25 27 30 33 34 37 40 41 42 43 43 43 41 39 37 36 34 32 31 30 30 29 29 28 28
18 19 18 18 17 16 16 17 18 18 18 18 18 18 19 19 19 20 21 21 19 18 17 17 18 20 22 24 26 28 32 35 37 37 38 39 38 37 36 36 35 33 32 32 31 31 31 30 30
17 17 15 15 15 14 15 15 16 15 15 16 16 17 17 17 17 18 19 18 16 14 13 12 12 13 13 15 17 21 24 27 30 32 33 34 34 34 34 34 33 33 32 32 32 32 31 31 31
16 14 13 12 11 12 13 13 14 14 15 16 16 17 17 16 16 17 17 15 13 11 10 8 8 7 8 8 10 13 18 21 23 26 28 28 29 31 31 32 32 32 32 33 33 32 32 32 32
15 14 13 12 11 11 11 13 14 14 15 16 17 17 18 18 18 17 17 16 14 12 11 9 7 6 6 5 5 8 10 13 16 20 23 25 26 27 28 29 30 31 32 32 33 33 32 33 33
15 15 14 13 11 11 11 12 13 14 16 16 16 17 18 19 19 19 19 18 17 16 15 13 11 9 8 7 5 2 4 8 11 13 16 19 21 23 25 27 28 29 30 31 32 33 34 34 34
16 15 14 13 13 12 12 13 14 15 16 16 17 17 19 20 20 20 20 19 19 18 18 16 15 13 11 9 8 6 3 1 4 8 11 14 17 19 21 23 25 26 28 30 31 33 34 34 34

GEFSSGP_500_meanwind_054.txt.gz
Wind_Speed
8 7 7 6 3 5 6 5 4 3 2 1 1 2 1 2 3 3 3 4 4 4 3 3 3 3 3 4 4 4 5 5 5 6 6 6 6 5 4 3 3 2 2 2 3 4 5 6 7
7 5 5 3 4 6 5 4 3 2 2 2 2 3 3 3 3 4 4 5 5 5 4 4 3 3 3 2 2 2 2 3 4 4 5 5 5 5 4 4 3 3 2 2 2 3 3 4 5
5 4 3 2 4 5 4 4 3 3 3 3 3 3 3 3 3 4 5 5 6 6 6 6 5 4 4 3 3 2 2 1 2 3 3 4 5 5 5 4 4 3 2 2 2 2 3 3 4
4 4 2 3 3 3 3 4 4 4 4 4 4 4 4 4 4 5 5 6 7 7 8 8 8 7 6 6 5 4 3 3 2 1 2 2 3 3 4 4 3 3 3 2 2 2 2 3 3
2 3 3 3 2 3 4 5 5 5 6 6 5 5 5 5 5 6 7 7 7 8 9 10 10 10 9 9 8 7 6 5 4 3 2 1 1 1 2 2 3 3 2 2 2 2 2 2 2
2 3 3 4 4 4 5 6 6 7 8 8 7 6 6 6 6 7 8 9 9 10 10 11 11 12 12 12 11 10 9 8 7 6 5 4 3 2 1 0 1 2 2 2 2 2 1 2 2
3 3 4 6 7 7 7 8 9 9 10 10 10 9 8 8 8 8 9 10 10 11 12 13 13 13 13 13 13 13 12 11 10 9 8 7 6 5 4 3 2 1 1 1 2 2 1 1 2
5 5 6 8 9 9 11 11 11 11 12 13 12 11 11 11 11 11 11 12 13 13 13 14 15 15 15 15 15 15 15 14 13 13 12 10 9 8 7 6 5 4 2 1 1 1 1 1 1
7 6 7 10 10 12 14 14 14 14 14 15 15 15 14 14 15 15 15 15 16 16 16 16 16 16 17 17 18 18 18 17 17 16 15 14 13 11 10 9 8 7 6 4 2 1 1 0 0
9 9 10 14 15 16 17 17 17 17 17 18 18 18 18 19 19 19 20 20 19 19 19 19 19 19 19 19 20 20 20 21 20 20 19 18 16 15 13 12 11 10 9 7 5 4 3 2 1
12 13 14 16 18 18 18 19 20 20 20 21 21 22 22 23 23 24 24 24 24 24 24 24 24 24 23 23 23 23 24 24 24 23 23 22 20 18 17 15 14 13 12 10 9 7 6 5 4
14 16 18 19 20 21 21 22 23 24 24 25 25 26 27 27 27 27 28 28 28 29 28 28 28 28 28 27 27 26 26 27 28 27 26 25 24 22 20 19 17 16 14 13 12 10 9 8 6
18 19 21 23 23 24 25 26 27 27 28 29 29 30 30 30 30 31 31 31 32 32 32 32 32 32 32 31 31 30 30 30 31 31 30 28 27 25 23 22 21 19 18 16 15 14 12 11 10
22 23 25 26 27 28 29 29 30 30 31 32 33 33 33 33 34 35 35 35 35 36 36 36 36 36 36 35 34 34 33 34 33 34 33 32 30 29 28 26 24 23 21 20 18 17 16 14 13
24 26 28 29 29 28 31 31 31 32 33 34 34 35 35 35 36 37 37 38 39 39 40 40 40 40 40 39 39 39 38 36 36 35 36 35 34 32 30 29 28 27 25 24 22 20 19 17 16
25 27 29 29 29 30 32 33 31 33 34 35 35 36 37 37 38 38 39 40 41 42 42 43 43 43 44 44 43 43 42 41 39 38 38 37 36 34 32 31 30 30 28 26 25 23 21 20 19
25 23 25 31 32 32 34 35 33 33 35 35 35 36 37 37 37 37 38 39 40 42 43 43 44 45 46 46 46 45 46 45 44 42 40 39 38 36 35 34 32 32 31 29 28 27 24 23 22
23 24 25 33 35 35 35 34 33 32 33 34 34 35 35 36 36 37 37 37 38 39 41 42 43 44 46 47 47 48 48 47 46 44 43 41 37 36 35 35 33 32 32 32 31 29 27 26 25
24 26 27 33 33 33 33 32 31 30 31 31 32 33 34 34 35 35 35 35 36 37 38 40 41 43 44 45 46 46 47 47 47 46 45 44 41 38 35 36 35 34 33 33 33 31 29 27 26
25 26 27 30 29 30 31 30 29 28 28 29 30 32 33 33 33 34 34 34 34 35 36 37 38 40 41 43 45 46 46 47 48 47 46 44 43 41 40 37 36 36 35 33 33 32 31 30 29
24 24 25 28 29 28 27 28 27 25 26 26 27 28 29 29 29 30 31 31 32 32 32 33 35 36 37 39 40 42 44 46 46 46 45 45 44 44 42 39 37 36 34 34 35 34 33 32 31
24 24 24 25 25 25 23 25 26 25 25 25 26 26 26 25 26 27 27 28 28 29 31 32 32 32 33 33 35 37 40 42 44 44 44 45 45 44 44 42 40 39 37 35 34 35 34 33 33
22 22 22 21 20 20 20 22 25 24 25 25 25 24 24 24 24 24 25 25 25 26 27 28 28 28 28 28 29 31 34 37 39 41 42 43 43 42 42 42 42 40 39 38 35 33 35 35 34
20 19 18 17 17 17 18 20 24 23 24 23 23 23 23 23 22 22 22 22 22 22 22 22 22 23 23 24 25 27 28 31 34 36 39 40 40 40 40 39 39 39 36 35 36 34 34 35 34
17 17 16 15 16 17 18 19 21 21 21 21 21 22 21 21 21 20 20 20 20 18 18 18 18 18 18 19 20 21 23 25 27 30 33 35 37 37 37 37 37 37 37 35 36 36 34 34 34
15 14 13 9 7 13 15 16 18 19 19 20 20 20 20 20 19 19 19 19 19 17 16 16 15 14 13 14 15 15 16 17 19 22 25 28 31 33 34 35 35 35 35 35 36 37 35 35 34
13 12 11 10 8 8 13 15 15 17 18 19 19 20 20 20 20 20 20 19 19 18 17 15 15 13 12 11 11 12 11 12 14 16 19 22 25 26 29 32 32 33 34 34 34 35 35 35 35
12 12 11 10 10 8 11 15 17 18 18 19 19 20 20 21 21 21 20 20 20 19 18 17 16 15 14 12 11 11 10 8 9 11 13 16 20 22 24 27 29 31 32 33 34 33 33 34 34
13 13 12 11 11 11 11 14 16 17 18 18 18 19 20 21 21 21 20 21 21 20 20 19 18 17 16 15 14 13 11 9 7 5 7 10 13 16 19 23 25 27 29 31 32 33 34 34 34
14 13 13 13 12 12 13 14 15 17 17 18 19 19 20 20 21 21 22 22 22 21 21 21 21 19 18 18 17 16 14 12 9 7 6 6 7 11 15 17 20 23 25 27 30 31 32 33 33

GEFSSGP_500_meanwind_060.txt.gz
Wind_Speed
8 7 6 6 5 4 4 4 6 7 6 6 6 5 4 3 3 3 3 2 2 2 2 1 1 1 1 1 1 2 2 2 3 3 3 4 3 3 3 3 2 1 2 4 5 7 8 9 10
7 6 4 5 5 4 4 6 6 7 7 6 6 5 5 4 4 5 4 4 4 4 4 3 3 3 3 3 2 2 2 2 2 2 2 2 2 2 3 3 2 2 2 3 4 5 7 7 8
5 4 4 5 6 5 5 7 7 7 8 7 7 6 6 5 4 5 5 5 5 6 6 6 6 6 5 5 5 5 4 4 3 3 2 2 2 2 2 2 2 2 1 2 3 4 5 6 7
5 4 5 4 5 5 6 6 7 7 8 7 7 7 6 5 5 5 6 6 6 7 7 8 8 8 8 8 8 7 7 6 6 5 4 4 3 2 2 2 2 2 2 2 2 3 4 4 5
5 6 6 5 5 6 6 7 7 7 7 8 7 7 7 6 6 6 7 8 7 8 9 9 9 10 11 11 10 10 10 9 8 7 7 6 5 4 3 3 2 2 2 2 2 2 3 3 3
5 7 7 7 8 6 6 6 7 8 9 9 9 9 9 8 8 7 8 9 9 9 10 11 11 11 12 13 13 13 12 12 11 10 9 8 8 7 6 5 4 3 3 3 3 3 3 3 3
6 7 8 9 9 8 9 9 10 11 11 11 11 11 12 12 11 10 10 11 11 11 12 12 13 13 14 14 15 15 15 15 14 13 12 11 10 9 8 7 6 5 4 4 3 3 3 3 3
8 8 9 9 9 9 10 12 14 15 15 14 14 14 14 14 14 14 13 13 13 14 14 15 15 16 16 17 17 17 17 17 17 16 16 15 14 13 11 10 9 8 6 5 5 4 4 4 4
9 9 10 10 11 13 14 14 15 17 17 17 18 18 17 18 18 18 18 18 18 18 18 18 18 18 19 19 19 20 20 20 19 19 19 18 17 16 15 13 13 11 10 8 7 5 5 4 4
10 10 11 11 13 14 15 16 17 18 19 20 21 21 21 21 21 22 23 23 23 23 23 23 23 22 22 21 22 22 22 21 22 22 22 22 21 20 19 17 16 15 13 12 10 8 7 6 5
11 12 13 13 14 16 17 18 19 20 22 23 24 25 25 25 26 26 27 28 28 29 29 28 28 27 27 26 25 25 24 24 24 24 24 24 23 24 23 21 20 18 17 15 14 12 10 8 7
13 14 15 16 17 19 20 21 22 23 25 26 27 28 28 29 29 30 31 32 32 33 33 32 32 32 31 31 30 30 28 27 27 27 26 26 25 25 25 25 24 22 21 19 17 15 14 12 10
15 16 17 19 20 21 22 23 23 23 25 26 28 29 30 30 31 32 34 34 35 36 36 36 37 36 36 35 34 33 32 32 31 31 29 28 28 27 26 27 27 26 25 23 21 19 17 15 13
17 18 19 20 21 21 21 22 22 23 26 28 28 29 30 32 33 34 35 36 37 37 38 39 39 39 39 39 38 36 36 35 34 33 33 31 30 29 29 30 30 30 28 26 25 23 21 19 17
18 18 20 21 21 20 21 23 25 26 27 28 28 29 29 31 33 34 35 37 37 38 39 39 40 41 41 41 41 40 40 39 38 37 36 35 32 31 31 31 31 32 31 30 28 26 24 22 20
19 20 21 22 22 22 24 26 26 27 27 27 28 28 29 30 31 32 33 35 36 37 38 39 39 40 40 41 42 42 42 41 41 40 39 37 36 35 33 32 31 31 32 32 30 29 27 26 24
21 22 23 24 24 25 26 27 28 28 27 27 28 28 29 29 30 31 32 32 33 35 36 37 38 38 39 40 40 42 42 42 41 41 41 40 39 37 35 34 32 32 32 32 32 30 29 28 27
22 23 24 25 26 27 28 29 28 27 26 27 27 27 28 28 28 29 29 30 31 32 33 34 35 36 36 37 37 38 40 41 41 41 41 42 41 40 39 37 35 34 32 32 33 33 31 30 29
21 23 25 25 26 26 26 26 25 24 24 24 24 24 25 26 27 27 27 27 28 29 30 31 32 33 33 34 34 35 37 38 39 40 41 41 42 42 41 40 39 36 33 32 33 33 33 32 31
20 22 24 25 25 24 24 23 22 21 20 20 21 22 24 25 25 26 25 25 26 27 27 28 28 28 29 31 32 33 34 36 37 39 40 40 41 42 43 42 40 39 37 34 33 33 31 32 32
19 21 22 22 21 22 21 20 18 17 17 18 20 21 22 23 23 24 24 24 24 24 24 24 25 25 25 27 28 30 31 33 34 36 38 39 39 41 41 42 42 41 39 36 34 33 33 31 32
18 19 19 19 19 19 18 16 14 15 17 18 19 21 22 22 22 22 22 22 22 22 21 20 20 20 21 22 24 26 28 30 32 33 35 36 37 38 39 40 41 41 40 37 35 35 34 32 32
16 16 17 17 16 14 13 13 14 15 17 19 21 22 23 22 22 21 21 21 21 21 20 18 17 17 18 19 20 22 24 25 27 29 31 33 34 36 38 39 40 40 39 38 36 37 35 34 33
14 13 14 13 12 11 11 13 14 17 18 19 21 22 23 22 21 21 22 22 21 20 19 17 16 15 15 15 16 17 19 21 23 25 27 29 31 34 36 37 38 39 39 38 38 38 37 36 35
11 11 11 11 10 10 11 12 15 16 18 19 20 21 21 21 21 21 22 22 22 21 20 18 17 16 15 14 13 13 14 15 17 20 22 25 28 30 33 35 36 38 39 39 39 38 37 36 36
10 10 11 11 11 11 12 14 15 16 17 18 18 19 20 20 20 21 22 22 22 21 21 20 19 17 16 15 13 12 12 11 12 14 17 20 22 26 29 31 34 36 38 39 39 39 38 37 36
10 11 11 12 12 13 13 13 15 15 17 17 18 19 20 20 21 21 23 23 22 22 21 21 20 19 18 17 15 13 11 11 10 9 10 13 16 20 24 28 31 34 36 39 39 38 38 37 36
11 12 12 13 13 13 13 14 15 16 17 17 19 20 20 21 21 21 22 23 23 22 22 22 21 20 20 18 17 15 13 12 11 10 9 9 11 14 18 23 27 30 33 36 37 38 39 39 37
11 12 13 13 13 13 13 14 15 16 17 17 18 19 20 20 21 21 22 23 23 22 22 22 22 21 21 20 18 17 15 14 13 12 9 8 7 9 12 17 21 25 28 32 35 38 39 39 38
11 12 13 13 13 13 13 14 15 16 17 17 18 19 19 20 21 21 21 22 23 23 23 23 22 22 21 21 19 18 17 16 15 13 11 9 7 7 9 12 16 19 23 27 31 34 36 37 37